Tracking 30744 objects as of 23-Jun-2025
HD Live streaming from Space Station
objects crossing your sky now

SL-19 DEB

Track SL-19 DEB now!
10-day predictions


NORAD ID: 23487
Int'l Code: 1994-085K
Perigee: 1,864.5 km
Apogee: 2,166.4 km
Inclination: 64.9 °
Period: 127.4 minutes
Semi major axis: 8386 km
RCS: 0.0667 m2 (small)
Launch date: December 26, 1994
Source: Commonwealth of Independent States (former USSR) (CIS)
Launch site: TYURATAM MISSILE AND SPACE COMPLEX (TTMTR)

Note: This is SATELLITE DEBRIS
Your satellite tracking list
Your tracking list is empty




NASA's NSSDC Master Catalog

Two Line Element Set (TLE):
1 23487U 94085K   25172.93382900 -.00000036  00000-0  18587-3 0  9993
2 23487  64.9360 142.6972 0180001 253.0478 142.3286 11.30408948258238
Source of the keplerian elements: AFSPC